E25XKG-15 Weather Reports


Display with metric or nautical units.
time (UTC)temp
F
wind
direction
speed
MPH
gust
MPH
rain 1hr
in
rain 24hr
in
rain mn
in
humidity
%
barometer
mb
20260504222634 91 0 0.0 0.0 0.00 0.00 0.00 47 1005.8
20260504222133 91 0 0.0 0.0 0.00 0.00 0.00 47 1005.8
20260504221632 91 0 0.0 0.0 0.00 0.00 0.00 47 1005.9
20260504221131 91 0 0.0 0.0 0.00 0.00 0.00 48 1006.1
20260504220630 91 0 0.0 0.0 0.00 0.00 0.00 47 1006.1
20260504220129 91 0 0.0 0.0 0.00 0.00 0.00 48 1006.0
20260504215628 91 0 0.0 0.0 0.00 0.00 0.00 49 1005.9
20260504215127 91 0 0.0 0.0 0.00 0.00 0.00 49 1005.8
20260504214626 91 0 0.0 0.0 0.00 0.00 0.00 50 1005.6
20260504214125 91 0 0.0 0.0 0.00 0.00 0.00 51 1005.6
20260504213624 91 0 0.0 0.0 0.00 0.00 0.00 52 1005.6
20260504213123 91 0 0.0 0.0 0.00 0.00 0.00 53 1005.4
20260504212622 91 0 0.0 0.0 0.00 0.00 0.00 54 1005.4
20260504212121 91 0 0.0 0.0 0.00 0.00 0.00 54 1005.4
20260504211620 91 0 0.0 0.0 0.00 0.00 0.00 56 1005.5
20260504211034 90 0 0.0 0.0 0.00 0.00 0.00 57 1005.1
20260504210636 90 0 0.0 0.0 0.00 0.00 0.00 57 1005.2
20260504210532 90 0 0.0 0.0 0.00 0.00 0.00 57 1005.2
20260504210135 91 0 0.0 0.0 0.00 0.00 0.00 55 1005.1
20260504210030 91 0 0.0 0.0 0.00 0.00 0.00 55 1005.1
20260504205634 91 0 0.0 0.0 0.00 0.00 0.00 56 1005.0
20260504205529 91 0 0.0 0.0 0.00 0.00 0.00 57 1005.0
20260504205133 91 0 0.0 0.0 0.00 0.00 0.00 58 1004.9
20260504205028 91 0 0.0 0.0 0.00 0.00 0.00 57 1004.9
20260504204632 91 0 0.0 0.0 0.00 0.00 0.00 55 1004.9
20260504204527 91 0 0.0 0.0 0.00 0.00 0.00 54 1004.9
20260504204131 91 0 0.0 0.0 0.00 0.00 0.00 56 1004.8
20260504204025 91 0 0.0 0.0 0.00 0.00 0.00 56 1004.7
20260504203629 90 0 0.0 0.0 0.00 0.00 0.00 57 1004.4
20260504203524 90 0 0.0 0.0 0.00 0.00 0.00 57 1004.4
20260504203128 90 0 0.0 0.0 0.00 0.00 0.00 56 1004.4
20260504203023 90 0 0.0 0.0 0.00 0.00 0.00 57 1004.5
20260504202626 90 0 0.0 0.0 0.00 0.00 0.00 55 1004.6
20260504202522 90 0 0.0 0.0 0.00 0.00 0.00 56 1004.6
20260504202125 90 0 0.0 0.0 0.00 0.00 0.00 57 1004.7
20260504202021 90 0 0.0 0.0 0.00 0.00 0.00 57 1004.7
20260504201624 90 0 0.0 0.0 0.00 0.00 0.00 57 1004.9
20260504201521 90 0 0.0 0.0 0.00 0.00 0.00 57 1004.9
20260504201122 77 0 0.0 0.0 0.00 0.00 0.00 98 734.8
20260504200843 91 0 0.0 0.0 0.00 0.00 0.00 55 1005.2
20260504200342 91 0 0.0 0.0 0.00 0.00 0.00 55 1005.1
20260504195841 91 0 0.0 0.0 0.00 0.00 0.00 53 1005.0
20260504195340 91 0 0.0 0.0 0.00 0.00 0.00 53 1004.8
20260504194839 91 0 0.0 0.0 0.00 0.00 0.00 54 1005.0
20260504194338 91 0 0.0 0.0 0.00 0.00 0.00 53 1004.9
20260504193837 92 0 0.0 0.0 0.00 0.00 0.00 51 1004.8
20260504193337 91 0 0.0 0.0 0.00 0.00 0.00 53 1004.9
20260504192835 92 0 0.0 0.0 0.00 0.00 0.00 53 1004.8
20260504192334 91 0 0.0 0.0 0.00 0.00 0.00 56 1004.8
20260504191833 91 0 0.0 0.0 0.00 0.00 0.00 55 1004.8
20260504191332 92 0 0.0 0.0 0.00 0.00 0.00 54 1004.8
20260504190831 91 0 0.0 0.0 0.00 0.00 0.00 55 1004.7
20260504190330 91 0 0.0 0.0 0.00 0.00 0.00 56 1004.7
20260504185829 91 0 0.0 0.0 0.00 0.00 0.00 55 1004.7
20260504185328 92 0 0.0 0.0 0.00 0.00 0.00 55 1004.6
20260504184827 92 0 0.0 0.0 0.00 0.00 0.00 54 1004.6
20260504184325 92 0 0.0 0.0 0.00 0.00 0.00 55 1004.6
20260504183825 92 0 0.0 0.0 0.00 0.00 0.00 55 1004.7
20260504183324 92 0 0.0 0.0 0.00 0.00 0.00 55 1004.7
20260504182823 92 0 0.0 0.0 0.00 0.00 0.00 54 1004.8
20260504182322 92 0 0.0 0.0 0.00 0.00 0.00 54 1004.8
20260504181821 92 0 0.0 0.0 0.00 0.00 0.00 55 1004.9
20260504181320 92 0 0.0 0.0 0.00 0.00 0.00 55 1005.0
20260504180818 92 0 0.0 0.0 0.00 0.00 0.00 54 1005.1
20260504180317 92 0 0.0 0.0 0.00 0.00 0.00 54 1005.2
20260504175816 92 0 0.0 0.0 0.00 0.00 0.00 53 1005.2
20260504175315 92 0 0.0 0.0 0.00 0.00 0.00 54 1005.1
20260504174814 92 0 0.0 0.0 0.00 0.00 0.00 54 1005.2
20260504174313 92 0 0.0 0.0 0.00 0.00 0.00 54 1005.1
20260504173812 92 0 0.0 0.0 0.00 0.00 0.00 54 1005.3
20260504173311 92 0 0.0 0.0 0.00 0.00 0.00 54 1005.3
20260504172810 92 0 0.0 0.0 0.00 0.00 0.00 54 1004.9
20260504172309 92 0 0.0 0.0 0.00 0.00 0.00 54 1005.1
20260504171808 92 0 0.0 0.0 0.00 0.00 0.00 52 1005.2
20260504171307 92 0 0.0 0.0 0.00 0.00 0.00 54 1005.3
20260504170806 92 0 0.0 0.0 0.00 0.00 0.00 53 1005.5
20260504170305 92 0 0.0 0.0 0.00 0.00 0.00 54 1005.6
20260504160254 92 0 0.0 0.0 0.00 0.00 0.00 53 1005.4
20260504150742 92 0 0.0 0.0 0.00 0.00 0.00 51 1004.9
20260504150241 92 0 0.0 0.0 0.00 0.00 0.00 51 1004.8
20260504141225 93 0 0.0 0.0 0.00 0.00 0.00 49 1003.4
20260504140724 92 0 0.0 0.0 0.00 0.00 0.00 49 1003.1
20260504140223 93 0 0.0 0.0 0.00 0.00 0.00 48 1003.3
20260504130712 94 0 0.0 0.0 0.00 0.00 0.00 41 1002.9
20260504130211 94 0 0.0 0.0 0.00 0.00 0.00 42 1002.8
20260504120200 94 0 0.0 0.0 0.00 0.00 0.00 42 1001.7
20260504110649 95 0 0.0 0.0 0.00 0.00 0.00 42 1001.0
20260504110148 95 0 0.0 0.0 0.00 0.00 0.00 42 1001.2
20260504100135 95 0 0.0 0.0 0.00 0.00 0.00 45 1000.3
20260504090123 95 0 0.0 0.0 0.00 0.00 0.00 48 1000.2
20260504081614 95 0 0.0 0.0 0.00 0.00 0.00 48 1000.7
20260504081113 95 0 0.0 0.0 0.00 0.00 0.00 49 1000.8
20260504080612 95 0 0.0 0.0 0.00 0.00 0.00 49 1000.8
20260504080111 95 0 0.0 0.0 0.00 0.00 0.00 48 1000.9
20260504050537 94 0 0.0 0.0 0.00 0.00 0.00 48 1004.6
20260504045535 94 0 0.0 0.0 0.00 0.00 0.00 48 1004.7
20260504045034 94 0 0.0 0.0 0.00 0.00 0.00 48 1004.8
20260504044533 94 0 0.0 0.0 0.00 0.00 0.00 48 1004.9
20260504044032 94 0 0.0 0.0 0.00 0.00 0.00 47 1004.9
20260504043531 94 0 0.0 0.0 0.00 0.00 0.00 48 1004.9
20260504043030 94 0 0.0 0.0 0.00 0.00 0.00 48 1005.0
20260504042529 94 0 0.0 0.0 0.00 0.00 0.00 48 1005.0
20260504042028 93 0 0.0 0.0 0.00 0.00 0.00 47 1004.7
20260504041527 94 0 0.0 0.0 0.00 0.00 0.00 47 1005.0
20260504041026 93 0 0.0 0.0 0.00 0.00 0.00 47 1005.1
20260504040525 93 0 0.0 0.0 0.00 0.00 0.00 47 1005.2
20260504040024 93 0 0.0 0.0 0.00 0.00 0.00 47 1005.1
20260504035523 93 0 0.0 0.0 0.00 0.00 0.00 47 1005.3
20260504035022 93 0 0.0 0.0 0.00 0.00 0.00 47 1005.2
20260504034521 93 0 0.0 0.0 0.00 0.00 0.00 47 1005.3
20260504034020 93 0 0.0 0.0 0.00 0.00 0.00 47 1005.3
20260504033519 93 0 0.0 0.0 0.00 0.00 0.00 47 1005.3
20260504033018 93 0 0.0 0.0 0.00 0.00 0.00 46 1005.3
20260504032517 93 0 0.0 0.0 0.00 0.00 0.00 47 1005.4
20260504032016 93 0 0.0 0.0 0.00 0.00 0.00 46 1005.4
20260504031515 92 0 0.0 0.0 0.00 0.00 0.00 46 1005.0
20260504031015 93 0 0.0 0.0 0.00 0.00 0.00 46 1005.4
20260504030513 93 0 0.0 0.0 0.00 0.00 0.00 46 1005.4
20260504030012 93 0 0.0 0.0 0.00 0.00 0.00 47 1005.4
20260504025511 93 0 0.0 0.0 0.00 0.00 0.00 46 1005.4
20260504025010 93 0 0.0 0.0 0.00 0.00 0.00 46 1005.5
20260504024510 92 0 0.0 0.0 0.00 0.00 0.00 46 1005.3
20260504024008 92 0 0.0 0.0 0.00 0.00 0.00 46 1005.5
20260504023507 92 0 0.0 0.0 0.00 0.00 0.00 46 1005.5
20260504023007 92 0 0.0 0.0 0.00 0.00 0.00 47 1005.6
20260504022506 92 0 0.0 0.0 0.00 0.00 0.00 46 1005.4
20260504022005 92 0 0.0 0.0 0.00 0.00 0.00 46 1005.2
20260504021504 93 0 0.0 0.0 0.00 0.00 0.00 46 1005.5
20260504021003 92 0 0.0 0.0 0.00 0.00 0.00 46 1005.5
20260504020502 92 0 0.0 0.0 0.00 0.00 0.00 46 1005.4
20260504020001 92 0 0.0 0.0 0.00 0.00 0.00 46 1005.5
20260504015500 92 0 0.0 0.0 0.00 0.00 0.00 46 1005.5
20260504014959 92 0 0.0 0.0 0.00 0.00 0.00 46 1005.6
20260504014458 92 0 0.0 0.0 0.00 0.00 0.00 46 1005.5
20260504013957 92 0 0.0 0.0 0.00 0.00 0.00 46 1005.4
20260504013456 92 0 0.0 0.0 0.00 0.00 0.00 46 1005.1
20260504012955 92 0 0.0 0.0 0.00 0.00 0.00 46 1005.3
20260504012454 92 0 0.0 0.0 0.00 0.00 0.00 46 1005.3
20260504011953 92 0 0.0 0.0 0.00 0.00 0.00 46 1005.3
20260504011452 92 0 0.0 0.0 0.00 0.00 0.00 46 1005.2
20260504010951 92 0 0.0 0.0 0.00 0.00 0.00 47 1005.1
20260504010450 92 0 0.0 0.0 0.00 0.00 0.00 45 1005.0
20260504005949 92 0 0.0 0.0 0.00 0.00 0.00 46 1004.7
20260504005448 92 0 0.0 0.0 0.00 0.00 0.00 46 1005.0
20260504004947 92 0 0.0 0.0 0.00 0.00 0.00 45 1005.0
20260504004446 92 0 0.0 0.0 0.00 0.00 0.00 46 1004.9
20260504003945 92 0 0.0 0.0 0.00 0.00 0.00 46 1004.9
20260504003444 92 0 0.0 0.0 0.00 0.00 0.00 46 1004.9
20260504002943 92 0 0.0 0.0 0.00 0.00 0.00 46 1004.8
20260504002442 92 0 0.0 0.0 0.00 0.00 0.00 46 1004.7
20260504001941 92 0 0.0 0.0 0.00 0.00 0.00 46 1004.7
20260504001440 92 0 0.0 0.0 0.00 0.00 0.00 45 1004.6
20260504000939 92 0 0.0 0.0 0.00 0.00 0.00 46 1004.5
20260504000438 92 0 0.0 0.0 0.00 0.00 0.00 46 1004.4
20260503235937 92 0 0.0 0.0 0.00 0.00 0.00 46 1004.3
20260503235436 92 0 0.0 0.0 0.00 0.00 0.00 47 1004.3
20260503234935 92 0 0.0 0.0 0.00 0.00 0.00 47 1004.2
20260503234434 92 0 0.0 0.0 0.00 0.00 0.00 46 1004.1
20260503233933 92 0 0.0 0.0 0.00 0.00 0.00 46 1004.1
20260503233432 92 0 0.0 0.0 0.00 0.00 0.00 47 1004.1
20260503232931 92 0 0.0 0.0 0.00 0.00 0.00 47 1004.0
20260503232430 92 0 0.0 0.0 0.00 0.00 0.00 47 1004.0
20260503231929 92 0 0.0 0.0 0.00 0.00 0.00 48 1003.9
20260503231428 92 0 0.0 0.0 0.00 0.00 0.00 48 1003.9
20260503230927 92 0 0.0 0.0 0.00 0.00 0.00 48 1003.9
20260503230426 92 0 0.0 0.0 0.00 0.00 0.00 49 1003.7
20260503225925 92 0 0.0 0.0 0.00 0.00 0.00 50 1003.7
20260503225424 92 0 0.0 0.0 0.00 0.00 0.00 49 1003.6
20260503224923 92 0 0.0 0.0 0.00 0.00 0.00 49 1003.5
20260503224423 92 0 0.0 0.0 0.00 0.00 0.00 50 1003.4
20260503223921 92 0 0.0 0.0 0.00 0.00 0.00 48 1003.5
20260503223421 92 0 0.0 0.0 0.00 0.00 0.00 50 1003.4